TimeCST,TemperatureF,Dew PointF,Humidity,Sea Level PressureIn,VisibilityMPH,Wind Direction,Wind SpeedMPH,Gust SpeedMPH,PrecipitationIn,Events,Conditions,WindDirDegrees,DateUTC
12:15 AM,61.3,50.9,69,30.12,10.0,SE,6.9,-,N/A,,Clear,130,2013-01-21 06:15:00
12:35 AM,60.8,50.9,70,30.12,10.0,SE,4.6,-,N/A,,Clear,130,2013-01-21 06:35:00
12:55 AM,60.3,51.1,72,30.12,10.0,SE,5.8,-,N/A,,Clear,130,2013-01-21 06:55:00
1:15 AM,59.9,51.1,73,30.11,10.0,SE,4.6,-,N/A,,Clear,130,2013-01-21 07:15:00
1:35 AM,59.0,51.1,75,30.10,10.0,ESE,4.6,-,N/A,,Clear,120,2013-01-21 07:35:00
1:55 AM,58.6,51.1,76,30.10,10.0,ESE,3.5,-,N/A,,Clear,120,2013-01-21 07:55:00
2:15 AM,57.7,50.9,78,30.10,10.0,ESE,3.5,-,N/A,,Clear,110,2013-01-21 08:15:00
2:35 AM,57.2,50.9,79,30.10,10.0,Calm,Calm,-,N/A,,Scattered Clouds,0,2013-01-21 08:35:00
2:55 AM,58.1,51.6,79,30.09,10.0,ESE,4.6,-,N/A,,Overcast,110,2013-01-21 08:55:00
3:15 AM,58.1,51.1,77,30.09,10.0,Calm,Calm,-,N/A,,Overcast,0,2013-01-21 09:15:00
3:35 AM,57.9,51.3,78,30.09,10.0,East,3.5,-,N/A,,Overcast,100,2013-01-21 09:35:00
3:55 AM,58.6,51.3,76,30.09,10.0,East,4.6,-,N/A,,Overcast,100,2013-01-21 09:55:00
4:15 AM,59.0,51.1,75,30.09,10.0,ESE,4.6,-,N/A,,Overcast,110,2013-01-21 10:15:00
4:35 AM,59.0,51.1,75,30.08,10.0,ESE,4.6,-,N/A,,Overcast,110,2013-01-21 10:35:00
4:55 AM,59.0,51.1,75,30.08,10.0,East,4.6,-,N/A,,Overcast,100,2013-01-21 10:55:00
5:15 AM,59.0,51.3,75,30.08,10.0,East,5.8,-,N/A,,Overcast,100,2013-01-21 11:15:00
5:35 AM,59.0,51.3,75,30.08,10.0,East,4.6,-,N/A,,Overcast,100,2013-01-21 11:35:00
5:55 AM,59.0,51.1,75,30.09,10.0,East,5.8,-,N/A,,Overcast,90,2013-01-21 11:55:00
6:15 AM,59.0,51.3,75,30.09,10.0,East,4.6,-,N/A,,Overcast,90,2013-01-21 12:15:00
6:35 AM,59.2,51.8,77,30.10,10.0,East,4.6,-,N/A,,Overcast,100,2013-01-21 12:35:00
6:55 AM,59.0,51.8,77,30.11,10.0,Calm,Calm,-,N/A,,Overcast,0,2013-01-21 12:55:00
7:15 AM,58.3,51.8,79,30.12,10.0,Calm,Calm,-,N/A,,Overcast,0,2013-01-21 13:15:00
7:35 AM,57.2,51.4,81,30.12,10.0,Calm,Calm,-,N/A,,Scattered Clouds,0,2013-01-21 13:35:00
7:55 AM,57.4,51.8,82,30.14,10.0,Calm,Calm,-,N/A,,Mostly Cloudy,0,2013-01-21 13:55:00
8:15 AM,58.1,52.0,80,30.15,10.0,Calm,Calm,-,N/A,,Overcast,0,2013-01-21 14:15:00
8:35 AM,58.5,52.2,80,30.16,10.0,Calm,Calm,-,N/A,,Overcast,0,2013-01-21 14:35:00
8:55 AM,59.7,52.7,78,30.17,10.0,ESE,4.6,-,N/A,,Overcast,110,2013-01-21 14:55:00
9:15 AM,60.8,53.1,76,30.17,10.0,ESE,3.5,-,N/A,,Overcast,120,2013-01-21 15:15:00
9:35 AM,61.9,53.6,74,30.19,10.0,ESE,4.6,-,N/A,,Overcast,120,2013-01-21 15:35:00
9:55 AM,62.8,54.0,73,30.20,10.0,East,6.9,-,N/A,,Overcast,90,2013-01-21 15:55:00
10:15 AM,63.7,54.9,73,30.20,10.0,ESE,5.8,-,N/A,,Overcast,120,2013-01-21 16:15:00
10:35 AM,65.1,55.8,72,30.21,10.0,SE,5.8,-,N/A,,Overcast,130,2013-01-21 16:35:00
10:55 AM,65.7,56.8,73,30.21,10.0,SE,8.1,-,N/A,,Overcast,130,2013-01-21 16:55:00
11:15 AM,66.7,57.2,71,30.20,10.0,ESE,11.5,16.1,N/A,,Overcast,120,2013-01-21 17:15:00
11:35 AM,67.3,56.8,69,30.19,10.0,ESE,9.2,-,N/A,,Overcast,120,2013-01-21 17:35:00
11:55 AM,68.2,56.7,67,30.19,10.0,ESE,11.5,-,N/A,,Overcast,120,2013-01-21 17:55:00
12:15 PM,69.4,56.3,63,30.17,10.0,SE,10.4,17.3,N/A,,Overcast,130,2013-01-21 18:15:00
12:35 PM,71.1,55.8,58,30.17,10.0,ESE,12.7,19.6,N/A,,Overcast,120,2013-01-21 18:35:00
12:55 PM,71.2,55.6,58,30.15,10.0,SE,9.2,-,N/A,,Mostly Cloudy,140,2013-01-21 18:55:00
1:15 PM,72.3,55.4,55,30.15,10.0,SSE,10.4,-,N/A,,Mostly Cloudy,150,2013-01-21 19:15:00
1:35 PM,72.7,54.7,53,30.14,10.0,SE,10.4,17.3,N/A,,Mostly Cloudy,140,2013-01-21 19:35:00
1:55 PM,74.1,54.3,50,30.12,10.0,SSE,9.2,-,N/A,,Scattered Clouds,150,2013-01-21 19:55:00
2:35 PM,75.2,52.5,45,30.11,10.0,SE,9.2,-,N/A,,Mostly Cloudy,140,2013-01-21 20:35:00
2:55 PM,75.6,51.6,43,30.11,10.0,SE,8.1,-,N/A,,Mostly Cloudy,140,2013-01-21 20:55:00
3:15 PM,77.2,51.3,40,30.10,10.0,SSE,5.8,-,N/A,,Mostly Cloudy,150,2013-01-21 21:15:00
3:35 PM,77.2,50.5,39,30.09,10.0,East,10.4,-,N/A,,Mostly Cloudy,90,2013-01-21 21:35:00
3:55 PM,77.0,48.6,37,30.09,10.0,SSE,8.1,-,N/A,,Mostly Cloudy,150,2013-01-21 21:55:00
4:15 PM,77.4,48.7,36,30.09,10.0,East,11.5,-,N/A,,Mostly Cloudy,100,2013-01-21 22:15:00
4:35 PM,77.0,47.5,35,30.09,10.0,East,10.4,-,N/A,,Scattered Clouds,100,2013-01-21 22:35:00
4:55 PM,76.6,48.4,37,30.10,10.0,East,11.5,17.3,N/A,,Scattered Clouds,90,2013-01-21 22:55:00
5:15 PM,76.1,48.9,38,30.10,10.0,ESE,6.9,-,N/A,,Mostly Cloudy,120,2013-01-21 23:15:00
5:35 PM,75.2,48.4,39,30.10,10.0,East,11.5,-,N/A,,Mostly Cloudy,100,2013-01-21 23:35:00
5:55 PM,73.9,48.4,40,30.10,10.0,ESE,6.9,-,N/A,,Scattered Clouds,110,2013-01-21 23:55:00
6:15 PM,72.7,49.1,43,30.11,10.0,East,8.1,-,N/A,,Mostly Cloudy,100,2013-01-22 00:15:00
6:55 PM,68.9,50.0,51,30.12,10.0,East,4.6,-,N/A,,Clear,100,2013-01-22 00:55:00
7:15 PM,67.5,50.0,53,30.12,10.0,East,4.6,-,N/A,,Scattered Clouds,80,2013-01-22 01:15:00
7:35 PM,67.1,49.8,54,30.13,10.0,East,8.1,-,N/A,,Clear,100,2013-01-22 01:35:00
7:55 PM,67.1,49.6,53,30.14,10.0,East,8.1,-,N/A,,Clear,90,2013-01-22 01:55:00
8:15 PM,66.6,45.9,47,30.15,10.0,East,9.2,-,N/A,,Clear,90,2013-01-22 02:15:00
8:35 PM,65.7,40.5,40,30.16,10.0,East,8.1,-,N/A,,Clear,90,2013-01-22 02:35:00
8:55 PM,64.6,41.0,42,30.16,10.0,East,8.1,-,N/A,,Clear,100,2013-01-22 02:55:00
9:15 PM,63.7,41.5,44,30.17,10.0,East,8.1,-,N/A,,Clear,100,2013-01-22 03:15:00
9:35 PM,63.1,42.3,46,30.17,10.0,ESE,10.4,-,N/A,,Clear,110,2013-01-22 03:35:00
9:55 PM,62.6,43.7,50,30.17,10.0,East,9.2,-,N/A,,Clear,100,2013-01-22 03:55:00
10:15 PM,61.7,44.8,54,30.17,10.0,ESE,9.2,-,N/A,,Clear,110,2013-01-22 04:15:00
10:35 PM,61.0,45.5,57,30.18,10.0,East,8.1,-,N/A,,Scattered Clouds,100,2013-01-22 04:35:00
10:55 PM,60.3,46.8,61,30.18,10.0,ESE,5.8,-,N/A,,Scattered Clouds,120,2013-01-22 04:55:00
11:35 PM,59.0,49.1,70,30.17,10.0,ESE,6.9,-,N/A,,Mostly Cloudy,110,2013-01-22 05:35:00
11:55 PM,59.9,50.5,71,30.17,10.0,ESE,8.1,-,N/A,,Overcast,110,2013-01-22 05:55:00